SB KEPS @ AMSAT $ORB13213.N 2Line Orbital Elements 13213.AMSAT
HR AMSAT ORBITAL ELEMENTS FOR AMATEUR SATELLITES IN NASA FORMAT FROM WA5QGD FORT WORTH,TX August 1, 2013 BID: ORB13213.N
DECODE 2-LINE ELSETS WITH THE FOLLOWING KEY: 1 AAAAAU 00 0 0 BBBBB.BBBBBBBB .CCCCCCCC 00000-0 00000-0 0 DDDZ 2 AAAAA EEE.EEEE FFF.FFFF GGGGGGG HHH.HHHH III.IIII JJ.JJJJJJJJKKKKKZ KEY: A-CATALOGNUM B-EPOCHTIME C-DECAY D-ELSETNUM E-INCLINATION F-RAAN G-ECCENTRICITY H-ARGPERIGEE I-MNANOM J-MNMOTION K-ORBITNUM Z-CHECKSUM
TO ALL RADIO AMATEURS BT
AO-07 1 07530U 74089B 13212.49882334 -.00000032 00000-0 69099-4 0 7411 2 07530 101.4343 200.4016 0011702 199.4734 306.4015 12.53597478771335 FO-29 1 24278U 96046B 13213.16815850 -.00000047 00000-0 -13225-4 0 1680 2 24278 098.5519 265.7073 0351104 047.7472 346.8165 13.53004254837397 SO-33 1 25509U 98061B 13213.10699000 .00000154 00000-0 16561-4 0 5506 2 25509 031.4330 173.2820 0351426 191.2145 268.8721 14.29101391771329 RS-22 1 27939U 03042A 13213.41249502 .00000231 00000-0 51833-4 0 6375 2 27939 097.8009 038.9003 0014319 047.3524 312.8896 14.64522632525915 VO-52 1 28650U 05017B 13212.50179169 .00000852 00000-0 10777-3 0 4884 2 28650 097.5678 228.8317 0027327 133.1990 348.4642 14.84013904445652 HO-68 1 36122U 09072B 13213.19801305 -.00000044 00000-0 00000 0 0 7748 2 36122 100.3015 269.1055 0007155 248.9905 111.0439 13.16305920174336 UO-11 1 14781U 84021B 13212.22824486 .00000326 00000-0 48867-4 0 2442 2 14781 097.8998 272.9033 0010115 140.6758 219.5191 14.80960752580450 AO-16 1 20439U 90005D 13212.86026392 .00000069 00000-0 41553-4 0 8061 2 20439 098.4722 151.8545 0011349 033.2511 000.1199 14.32192638228634 LO-19 1 20442U 90005G 13213.46758906 .00000045 00000-0 32265-4 0 7417 2 20442 098.4419 154.0890 0012044 021.2650 097.8951 14.32402603228919 AO-27 1 22825U 93061C 13212.93112007 .00000045 00000-0 34763-4 0 4441 2 22825 098.6202 156.4882 0009144 151.0561 281.0008 14.29579007 35022 IO-26 1 22826U 93061D 13213.42654450 .00000048 00000-0 35519-4 0 2003 2 22826 098.6144 157.2561 0009825 143.7707 004.4568 14.29864914 35221 GO-32 1 25397U 98043D 13213.58998162 .00000104 00000-0 45792-4 0 1277 2 25397 098.4180 179.3784 0001750 130.0362 230.1455 14.23352079782402 NO-44 1 26931U 01043C 13212.79969755 -.00000005 00000-0 30221-4 0 3841 2 26931 067.0526 144.5034 0007889 274.1631 130.7008 14.29945270617800 SO-50 1 27607U 02058C 13213.14517204 .00000359 00000-0 76207-4 0 1299 2 27607 064.5574 127.2654 0039918 148.5526 358.2983 14.73013225570337 CO-55 1 27844U 03031E 13213.04966169 .00000153 00000-0 90204-4 0 7067 2 27844 098.7014 221.4706 0010941 117.9167 313.3198 14.21248122523101 CO-57 1 27848U 03031J 13213.05141897 .00000132 00000-0 81175-4 0 6518 2 27848 098.7100 221.0084 0010797 123.4500 270.0674 14.20970379523033 AO-51 1 28375U 04025K 13212.81871924 .00000059 00000-0 30794-4 0 6184 2 28375 098.2047 166.4965 0082407 240.5104 151.5716 14.41144145477767 CP3 1 31129U 07012N 13212.59408183 .00000394 00000-0 98693-4 0 5174 2 31129 097.9003 202.7329 0098564 289.3547 189.0799 14.53750041333441 CO-65 1 32785U 08021C 13212.75428093 .00000784 00000-0 10026-3 0 6980 2 32785 097.7482 269.0125 0015309 156.8686 321.5448 14.84006119284484 PRISM 1 33493U 09002B 13213.45981884 .00001801 00000-0 21090-3 0 378 2 33493 098.2226 011.9032 0019077 048.9200 311.3675 14.86254158244646 SOHLA-1 1 33496U 09002E 13212.50263824 .00000226 00000-0 45738-4 0 1099 2 33496 098.1396 328.4153 0007085 170.7278 250.6955 14.70334918242382 SO-67 1 35870U 09049F 13213.37552007 .00003700 00000-0 13978-3 0 2909 2 35870 097.1892 240.5168 0002992 122.9429 332.5407 15.27587288215159 TISAT-1 1 36799U 10035E 13213.31113097 .00001245 00000-0 15796-3 0 3108 2 36799 098.0329 298.2718 0012954 283.0131 076.9635 14.83499320165262 STUDSAT 1 36801U 10035G 13212.76146160 .00003922 00000-0 42342-3 0 6606 2 36801 098.0456 301.2848 0010107 258.3898 247.9340 14.88926265165349 ALMASAT-1 1 38078U 12006B 13213.16237697 .00021725 00000-0 54954-3 0 4875 2 38078 069.4708 096.4807 0684705 089.3967 278.5511 14.26875653 75657 XATCOBEO 1 38082U 12006F 13213.09584249 .00068267 36839-5 12834-2 0 3707 2 38082 069.4691 066.4975 0548749 072.9022 293.1421 14.61872959 76472 SOMP 1 39135U 13015F 13213.03294810 .00002243 00000-0 19000-3 0 2197 2 39135 064.8776 067.7262 0008458 203.6434 317.3350 15.00555027 15556 CUBEBUG-1 1 39153U 13018D 13213.33771332 .00000649 00000-0 10053-3 0 2728 2 39153 098.0711 289.0830 0016912 301.2460 058.7094 14.76527433 14341 ESTCUBE-1 1 39161U 13021C 13213.25546763 .00000567 00000-0 10499-3 0 2385 2 39161 098.1269 291.2735 0009880 337.9544 022.1234 14.69041967 12617 NOAA-10 1 16969U 86073A 13213.17902965 .00000056 00000-0 40149-4 0 4453 2 16969 098.5437 240.0334 0013489 113.4898 288.1338 14.27654797398368 NOAA-11 1 19531U 88089A 13213.49560273 .00000032 00000-0 38548-4 0 4552 2 19531 098.7098 295.4572 0012274 130.1880 300.8572 14.15023230282539 NOAA-12 1 21263U 91032A 13213.16758309 .00000038 00000-0 34608-4 0 9219 2 21263 098.6954 238.1933 0014994 090.6063 311.0587 14.25578985154961 MET-3/5 1 21655U 91056A 13212.76688438 .00000134 00000-0 31658-3 0 7496 2 21655 082.5531 222.7946 0013514 024.2188 335.9567 13.17046024 55800 MET-2/21 1 22782U 93055A 13213.18925868 .00000006 00000-0 -80130-5 0 8050 2 22782 082.5465 067.2154 0023621 084.5374 066.0831 13.83709537 5862 OKEAN-4 1 23317U 94066A 13213.48920931 .00000670 00000-0 76252-4 0 2843 2 23317 082.5400 007.3845 0022447 078.7080 340.5733 14.84562707 15660 NOAA-14 1 23455U 94089A 13213.35809978 .00000080 00000-0 65227-4 0 4010 2 23455 098.8021 297.1106 0008932 223.8105 177.7056 14.13914380958759 NOAA-15 1 25338U 98030A 13213.50817028 .00000137 00000-0 77236-4 0 8249 2 25338 098.7275 203.4738 0010418 003.2518 103.7488 14.25249731791300 RESURS 1 25394U 98043A 13212.55581568 -.00000037 00000-0 17592-5 0 4343 2 25394 098.3657 186.2769 0002602 111.5871 358.5143 14.24333555782670 FENGYUN1 1 25730U 99025A 13211.93817565 .00000343 00000-0 21679-3 0 9284 2 25730 098.8796 170.9175 0023890 287.4045 104.6965 14.10585607732211 OKEAN-0 1 25860U 99039A 13212.49898980 .00000247 00000-0 44473-4 0 85 2 25860 097.9940 174.3653 0001560 077.2641 034.1833 14.74654975754885 NOAA-16 1 26536U 00055A 13213.23140197 .00000037 00000-0 44637-4 0 3070 2 26536 099.0393 266.4355 0010380 014.6238 027.1601 14.12902036662935 NOAA-17 1 27453U 02032A 13213.45776166 .00000071 00000-0 48037-4 0 2188 2 27453 098.3126 225.1391 0012216 039.1199 112.2254 14.24607595577165 NOAA-18 1 28654U 05018A 13213.45164554 .00000006 00000-0 28341-4 0 7056 2 28654 099.1038 182.3287 0015411 083.0005 074.0710 14.11846416422447 NOAA-19 1 33591U 09005A 13213.47187635 .00000237 00000-0 15477-3 0 8882 2 33591 098.9051 155.1845 0013045 304.7770 166.3459 14.11530656230882 HUBBLE 1 20580U 90037B 13212.45971161 .00001143 00000-0 68966-4 0 2932 2 20580 028.4708 342.5622 0003327 098.4503 314.6691 15.03804064 76367 ISS 1 25544U 98067A 13214.02245632 .00005325 00000-0 10071-3 0 3097 2 25544 051.6498 241.2248 0003697 258.6023 186.1975 15.50146574841816 CO-58 1 28895U 05043F 13213.14143639 .00000398 00000-0 89798-4 0 5367 2 28895 097.8650 066.2603 0016208 302.1551 057.8078 14.61180485413502 FALCON 1 30776U 07006E 13212.62287733 .00003044 00000-0 18071-3 0 6643 2 30776 035.4308 289.4090 0001361 307.7253 168.1168 15.11048747352142 MAST 1 31126U 07012K 13212.99603106 .00000276 00000-0 71425-4 0 8162 2 31126 097.8836 206.3685 0091643 272.8334 150.1853 14.54633656333834 CAPE1 1 31130U 07012P 13213.47951328 .00000396 00000-0 99627-4 0 8193 2 31130 097.9013 203.1964 0098979 287.5320 071.5081 14.53569490333358 COMPASS 1 32787U 08021E 13213.19676880 .00001573 00000-0 18713-3 0 6900 2 32787 097.7493 270.5904 0015800 152.0539 208.1529 14.85692582284645 AAUSAT2 1 32788U 08021F 13213.12383032 .00001673 00000-0 19634-3 0 6744 2 32788 097.7502 271.1853 0015353 151.5546 208.6511 14.86170543284670 DO-64 1 32789U 08021G 13213.14062286 .00002613 00000-0 28351-3 0 7047 2 32789 097.7663 275.2456 0014859 144.0949 268.2008 14.88933502284810 CO-66 1 32791U 08021J 13212.74354149 .00001104 00000-0 13602-3 0 6683 2 32791 097.7495 269.4532 0016219 154.7634 353.3244 14.84794391284485 RS-30 1 32953U 08025A 13213.45561326 .00000010 00000-0 00000 0 0 811 2 32953 082.4974 040.0350 0019277 131.7120 228.5616 12.43035649235536 METEOR-M 1 35865U 09049A 13213.26190510 -.00000034 00000-0 41020-5 0 6732 2 35865 098.5986 264.5706 0001986 325.7650 034.3400 14.21890431200870 RS-38 1 35869U 09049E 13213.35775556 .00000022 00000-0 29514-4 0 6295 2 35869 098.5933 264.5666 0004154 313.4048 046.6782 14.22138724200911 JUGNU 1 37839U 11058B 13212.90087910 .00000335 00000-0 37567-4 0 4323 2 37839 019.9626 035.8536 0019074 055.3579 084.6063 14.12169271 93227 SRMSAT 1 37841U 11058D 13210.96942403 .00000340 00000-0 42258-4 0 4337 2 37841 019.9728 060.4581 0011968 346.5922 158.6670 14.10237495 92821 RAX-2 1 37853U 11061D 13213.16243270 .00002044 00000-0 16149-3 0 5563 2 37853 101.7070 087.6522 0233687 258.4971 255.8150 14.83993788 95111 AUBIESAT 1 37854U 11061E 13212.54125325 .00002100 00000-0 16220-3 0 5478 2 37854 101.7110 087.7024 0233539 258.7359 166.0735 14.84740939 95047 HRBE 1 37855U 11061F 13212.55491441 .00001842 00000-0 14456-3 0 5533 2 37855 101.7105 087.4512 0234547 259.2704 160.3502 14.84384970 95038 RS-39 1 38051U 11062C 13213.49073947 .00010123 00000-0 31479-3 0 6564 2 38051 051.6358 351.7031 0011667 072.7814 006.3838 15.33866951 84734 E-STAR 1 38079U 12006C 13213.08966442 .00052443 32828-5 10698-2 0 3249 2 38079 069.4748 074.6217 0592315 077.4077 060.3741 14.51086477 76244 GOLIAT 1 38085U 12006J 13213.07105966 .00051917 32529-5 10642-2 0 2567 2 38085 069.4711 077.2080 0603063 078.6993 288.1234 14.48718366 76175 HORYU-2 1 38340U 12025D 13213.33771988 .00000638 00000-0 11210-3 0 5636 2 38340 098.2192 161.3907 0013631 107.7678 252.5000 14.71054199 64755 RS-40 1 38736U 12041D 13213.07117272 .00000010 00000-0 00000 0 0 3334 2 38736 082.4805 127.1485 0019946 228.0133 131.9249 12.42869559 45821 PROITERES 1 38756U 12047B 13213.45298330 .00000363 00000-0 62885-4 0 9891 2 38756 098.2502 291.3247 0011826 328.2761 031.7734 14.74284007 48062 RAIKO 1 38852U 98067CN 13213.95014498 .01501115 00000-0 10873-2 0 3142 2 38852 051.6226 206.8233 0000700 040.8717 319.2840 16.15041554 47165 FITSAT 1 1 38853U 98067CP 13184.86912902 .06638326 12312-4 50483-3 0 3153 2 38853 051.6252 351.6077 0011722 245.9321 114.2104 16.39337660 42708 TechEdSat 1 38854U 98067CQ 13124.93253577 .11592855 12481-4 94246-3 0 2908 2 38854 051.6449 297.0261 0010505 310.8629 049.0629 16.38844728 33294 F 1 1 38855U 98067CR 13129.77714356 .27424026 12535-4 30797-3 0 2871 2 38855 051.5085 272.4145 0008326 194.2908 166.5495 16.49710473 33949 WeWish 1 38856U 98067CS 13069.98095549 .16701328 12537-4 10063-2 0 2487 2 38856 051.6166 215.0521 0008325 316.0438 044.8765 16.41348316 24586 OSSI-1 1 39131U 13015B 13188.41684431 .01502874 74059-5 44818-3 0 85 2 39131 064.8841 114.8425 0051126 026.6892 350.0589 16.22925119 12374 BEESAT-3 1 39134U 13015E 13213.03029649 .00002521 00000-0 21154-3 0 2576 2 39134 064.8760 067.7158 0008111 204.1537 316.6619 15.00627175 15552 BEESAT-2 1 39136U 13015G 13213.03227105 .00002189 00000-0 18569-3 0 2380 2 39136 064.8780 067.7171 0008544 204.4592 320.2271 15.00568610 15558 /EX